Regional Weather Roundup
Issued by NWS Midland/Odessa, TX

Skip options and go directly to product.
Home | Oldest Version | Next Version | Current Version | All | Text Only | Save Text | Print | Product List | Glossary On

Skip product version selection by date and time.   
493
ASUS44 KMAF 291710
RWRMAF
MIDLAND AREA WEATHER ROUNDUP
NATIONAL WEATHER SERVICE MIDLAND TX
1200 PM CDT SUN MAY 29 2016

...IN SOUTHWEST TEXAS AND SOUTHEAST NEW MEXICO...

CITY           SKY/WX    TMP DP  RH WIND       PRES   REMARKS
ALPINE         PTSUNNY   75  61  60 SE8       30.24S
ANDREWS        FAIR      76  62  60 S13G20    30.16R
ARTESIA        PTSUNNY   79  63  57 SE12      30.13S
BIG SPRING     CLOUDY    75  59  57 SE20      30.17S
CARLSBAD       CLOUDY    80  63  55 S12       30.11S
DRYDEN           N/A     73  67  81 E13       30.11S
FORT STOCKTON  NOT AVBL
GUAD PASS      NOT AVBL
HOBBS          CLOUDY    73  64  73 S14G20    30.18R
MARFA          CLOUDY    76  60  57 CALM      30.22S
MIDLAND AIRPK  CLOUDY    79  62  55 S18       30.15F
MIDLAND INTL   CLOUDY    79  62  56 S20       30.14F
ODESSA         CLOUDY    77  61  57 S21       30.15S
PECOS          CLOUDY    82  65  55 SE15G22   30.08R
PRESIDIO       NOT AVBL
SEMINOLE       PTSUNNY   76  61  60 SE13      30.17F
SNYDER           N/A     78  63  60 S13G20    30.14S
WINK           NOT AVBL
$$
...OTHER STATIONS IN TEXAS...

CITY           SKY/WX    TMP DP  RH WIND       PRES   REMARKS
ABILENE        SUNNY     80  66  62 SW7       30.11S
AMARILLO       SUNNY     79  59  50 SW17G24   30.19R
AUSTIN         MOSUNNY   84  68  58 CALM      30.10F
BROWNSVILLE    PTSUNNY   86  76  71 E15G24    30.04F
CORPUS CHRISTI PTSUNNY   87  72  60 E22       30.06F
DALLAS FTW     CLOUDY    82  68  62 S5        30.08S
DEL RIO        CLOUDY    81  68  64 E16G28    30.08S
EL PASO        MOSUNNY   88  12   6 N3        30.11S
HOUSTON INT    PTSUNNY   84  70  62 E6        30.11F
LUBBOCK        PTSUNNY   77  62  59 S15       30.17S
SAN ANGELO     MOSUNNY   81  63  54 S15G23    30.12S
SAN ANTONIO    MOSUNNY   83  69  62 VRB6      30.11S
WACO           PTSUNNY   84  71  65 SE10      30.08R
WICHITA FALLS  NOT AVBL
$$
...OTHER LOCATIONS IN NEW MEXICO...

CITY           SKY/WX    TMP DP  RH WIND       PRES   REMARKS
ALAMAGORDO     SUNNY     82  16   8 W8        30.14S
ALBUQUERQUE    MOSUNNY   76  12   8 S14G20    30.18F
CANNON AFB     PTSUNNY   72  62  71 S12       30.18F
CLOVIS         CLOUDY    73  61  64 S15       30.19F
HOLLOMAN AFB   SUNNY     85  11   6 W13       30.11F
ROSWELL        PTSUNNY   79  62  56 S14       30.14S
RUIDOSO          N/A     75  18  11 S10G20    30.29F
SANTA FE       SUNNY     76  22  13 SE17G28   30.23S
TRUTH OR CONSE SUNNY     79   8   6 SW8       30.15F
TUCUMCARI      TSTM      73  59  61 N3        30.14F
$$

USA.gov is the U.S. government's official web portal to all federal, state and local government web resources and services.